Find Starlink 30383

NORAD ID: 57773 Int'l Des: 2023-134 Owner: SPXS Country: US Constellation: starlink operational
LEOCIRCULAR

現在のビュー

3D地球を読み込み中...

About Starlink 30383

Starlink 30383 (NORAD 57773) is a starlink constellation satellite (v2 mini) launched Sep 4, 2023 by SPXS of US. It operates in LEO, CIRCULAR orbit with a mass of 730.00 kg.

Starlink 30383について

説明を読み込み中...

次回通過

Passes for default location (London). Set your location on the main map for personalized predictions.

高度履歴

Loading altitude history...

軌道要素

1 57773U 23134C 26175.09296298 .00014526 00000-0 53729-3 0 9995
2 57773 43.0039 316.6642 0000617 254.7101 105.3682 15.27522780155748
Epoch: Jun 24, 2026 • Age: 26 hours

現在のステータス

高度 485.5 km
速度 7.63 km/s
衛星直下点 37.76°N, 103.95°E
打ち上げ日 Sep 4, 2023
運用期間 2.8 years
タイプ internet

技術仕様

分類 Payload
質量 730.00 kg
乾燥質量 700.00 kg
総質量 730.00 kg
長さ 0.30 m
直径 4.10 m
スパン 29.00 m
形状 Box + pan
製造者 SPXS
バスタイプ Starlink V2M
フェーズステータス In Orbit
所有者/国 SPXS/US

Most Searched